[[{"header":{"parameterUnit":"m.s-1","parameterCategory":1,"la1":30.2991,"la2":30.254,"lo1":-89.0895,"lo2":-89.0444,"dy":0.0017,"dx":0.0017,"nx":28,"ny":28,"refTime":"2023-04-03T21:00:00:Z","depth":0,"parameterNumber":2,"parameterNumberName":"U-component_of_WINDS"},"data":[0,0,0,0,0,0,0,0,0,0,0,0,0,0,0,0,0,0,0,0,0,0,0,0,0,0,0,0,0,0,0,0,0,0,0,0,0,0,0,0,0,0,0,0,0,0,0,0,0,0,0,0,0,0,0,0,0,0,0.115,0.1149,0,0.1104,0.1103,0.1103,0.1056,0.1056,0.1055,0.1055,0.1011,0.101,0.101,0,0,0,0,0,0,0,0,0,0,0,0,0,0.1201,0.12,0.115,0.1149,0.1149,0.1104,0.1103,0.1103,0.1057,0.1056,0.1055,0.1054,0.1011,0.101,0.101,0,0,0,0,0,0,0,0,0,0,0,0,0,0.1169,0.12,0.115,0.112,0.1117,0.1104,0.1103,0.1102,0.1057,0.1056,0.1055,0.1054,0.1011,0.101,0.1009,0.1023,0,0,0.1007,0.1006,0,0,0,0,0,0,0,0,0.1171,0.1168,0.1125,0.1122,0.1119,0.1085,0.1105,0.1076,0.1057,0.108,0.1055,0.1053,0.1036,0.1033,0.1027,0.1021,0.1019,0.1007,0.1006,0.1006,0.1006,0,0,0,0,0,0,0,0.1174,0.1169,0.1132,0.1125,0.1121,0.111,0.1105,0.1099,0.1064,0.1078,0.1074,0.1069,0.1034,0.1028,0.1026,0.1018,0.1007,0.1006,0.1005,0.1005,0.1022,0.1023,0,0,0,0,0,0,0.118,0.1171,0.1133,0.113,0.1143,0.111,0.1104,0.1097,0.1064,0.1058,0.107,0.1067,0.103,0.1027,0.1024,0.1038,0.1006,0.1005,0.1005,0.1021,0.1023,0.1024,0,0,0,0,0,0,0.1181,0.1177,0.1135,0.115,0.1144,0.111,0.1102,0.1096,0.109,0.1058,0.1052,0.107,0.1029,0.1025,0.1024,0.1036,0.1005,0.1004,0.102,0.1022,0.1023,0.1067,0,0,0,0,0,0,0.1183,0.1177,0.1181,0.115,0.1143,0.1135,0.1103,0.1096,0.1088,0.1084,0.1056,0.1051,0.1028,0.1025,0.1023,0.1034,0.1003,0.1019,0.1021,0.1023,0.1064,0.107,0.1075,0,0,0,0,0,0.1185,0.1196,0.1182,0.1178,0.1147,0.1135,0.1131,0.1104,0.1089,0.1093,0.1073,0.1051,0.1035,0.1025,0.1022,0.1034,0.1018,0.102,0.1023,0.1062,0.1069,0.1074,0,0,0,0,0,0,0.1231,0.1191,0.1175,0.1177,0.116,0.1127,0.1132,0.1112,0.1099,0.1096,0.1064,0.1058,0.1061,0.1047,0.1037,0.1046,0.1024,0.1025,0.1055,0.1061,0.1066,0.107,0.1002,0,0,0,0,0,0.1241,0.1233,0.12,0.1205,0.1197,0.1166,0.116,0.114,0.1122,0.1114,0.1094,0.1078,0.1069,0.1064,0.1054,0.1062,0.1056,0.1068,0.1074,0.1078,0.108,0.1084,0.109,0.1031,0.1031,0.1031,0,0,0.1262,0.124,0.1237,0.1213,0.1198,0.1192,0.116,0.1155,0.1151,0.1114,0.1111,0.1096,0.1076,0.1079,0.108,0.1068,0.1095,0.1081,0.1084,0.1084,0.1087,0.1093,0.1098,0.1032,0.1032,0.1032,0,0,0.1298,0.128,0.1282,0.1267,0.1243,0.1223,0.1224,0.1195,0.1183,0.1179,0.1152,0.1147,0.1132,0.1119,0.111,0.1142,0.1122,0.1139,0.1167,0.1171,0.1176,0.118,0.1192,0.1197,0.1142,0.1142,0.1142,0,0.1328,0.1317,0.1286,0.1283,0.1274,0.1239,0.1242,0.1229,0.1204,0.1199,0.1186,0.1167,0.1151,0.1151,0.1159,0.1153,0.1153,0.1143,0.1177,0.1181,0.1184,0.1196,0.1201,0.1144,0.1144,0.1144,0.1143,0,0.1355,0.1348,0.1353,0.1329,0.132,0.132,0.1291,0.1286,0.1267,0.1248,0.1246,0.1225,0.1211,0.1209,0.1191,0.1208,0.1201,0.1183,0.116,0.1193,0.1203,0.1207,0.1147,0.1147,0.1146,0.1145,0,0,0.1419,0.1378,0.138,0.1369,0.1341,0.1336,0.1335,0.132,0.1317,0.1301,0.13,0.1288,0.1271,0.1262,0.1242,0.1246,0.1274,0.1227,0.1226,0.1238,0.1292,0.1307,0.1312,0.126,0.126,0.1261,0.1294,0,0.1451,0.1446,0.1418,0.1422,0.1416,0.1383,0.1382,0.1365,0.1348,0.1341,0.1322,0.1315,0.1293,0.1287,0.1289,0.127,0.1284,0.1267,0.126,0.126,0.1267,0.1317,0.1332,0.1365,0.1298,0.1298,0.1299,0,0.1488,0.1473,0.1476,0.1448,0.1445,0.1445,0.1429,0.1423,0.1404,0.1391,0.138,0.1358,0.1356,0.1334,0.1332,0.1321,0.1316,0.1306,0.1307,0.1306,0.1282,0.1319,0.1374,0.1379,0.1305,0.1304,0.1304,0,0.1536,0.1517,0.1516,0.1508,0.1475,0.1476,0.1463,0.1443,0.1436,0.1423,0.1418,0.1405,0.1398,0.139,0.1365,0.1351,0.1366,0.1341,0.1356,0.1357,0.1362,0.1362,0.1418,0.1357,0.1357,0.1357,0.1357,0,0.1575,0.1578,0.1538,0.1537,0.1541,0.1509,0.1514,0.1497,0.148,0.1477,0.1447,0.1445,0.1412,0.1407,0.1387,0.1389,0.1386,0.1377,0.1372,0.138,0.1381,0.1377,0.1375,0.1359,0.1358,0.1358,0.1358,0,0.1629,0.1602,0.1599,0.1569,0.1561,0.1565,0.1539,0.1538,0.1519,0.1516,0.1513,0.1484,0.1476,0.145,0.1436,0.1423,0.1431,0.1421,0.1437,0.1434,0.1451,0.1451,0.1508,0.1514,0.1448,0.1449,0.145,0,0.1656,0.1658,0.1628,0.1623,0.1611,0.1604,0.1596,0.1566,0.156,0.1539,0.1541,0.153,0.152,0.151,0.1488,0.1477,0.1467,0.1488,0.1465,0.1474,0.1469,0.1469,0.147,0.1493,0.1494,0.1494,0.1495,0,0.1708,0.1695,0.1685,0.167,0.1662,0.165,0.1636,0.1634,0.16,0.1595,0.1586,0.1578,0.1564,0.1554,0.154,0.1528,0.1507,0.1502,0.1505,0.1514,0.1524,0.152,0.1452,0.1501,0.1501,0.15,0.15,0.15,0.175,0.1751,0.173,0.172,0.1706,0.1693,0.1691,0.1672,0.1664,0.1649,0.1632,0.1625,0.1607,0.1585,0.1575,0.157,0.1558,0.1562,0.1564,0.1566,0.157,0.1524,0.1567,0.1567,0.1567,0.1566,0.1566,0,0.1802,0.1786,0.1778,0.1759,0.1751,0.1731,0.1714,0.171,0.1704,0.1688,0.1679,0.167,0.1661,0.1638,0.1627,0.1627,0.1617,0.1626,0.1626,0.1624,0.158,0.1579,0.1634,0.1634,0.1634,0.1634,0.1634,0.1634,0.1828,0.1827,0.1812,0.1805,0.1789,0.1782,0.1775,0.1764,0.1751,0.1742,0.1734,0.1718,0.17,0.1687,0.1679,0.1672,0.167,0.1682,0.1672,0.1633,0.1626,0.162,0.1619,0.1681,0.1681,0.1716,0.1716,0.1717]},{"header":{"parameterUnit":"m.s-1","parameterCategory":1,"la1":30.2991,"la2":30.254,"lo1":-89.0895,"lo2":-89.0444,"dy":0.0017,"dx":0.0017,"nx":28,"ny":28,"refTime":"2023-04-03T21:00:00:Z","depth":0,"parameterNumber":3,"parameterNumberName":"V-component_of_WINDS"},"data":[0,0,0,0,0,0,0,0,0,0,0,0,0,0,0,0,0,0,0,0,0,0,0,0,0,0,0,0,0,0,0,0,0,0,0,0,0,0,0,0,0,0,0,0,0,0,0,0,0,0,0,0,0,0,0,0,0,0,4.6192,4.6192,0,4.6223,4.6223,4.6224,4.62,4.6199,4.6198,4.6197,4.6229,4.623,4.6232,0,0,0,0,0,0,0,0,0,0,0,0,0,4.6111,4.6112,4.6192,4.6192,4.6193,4.6223,4.6223,4.6224,4.6201,4.6199,4.6198,4.6197,4.6228,4.623,4.6232,0,0,0,0,0,0,0,0,0,0,0,0,0,4.6144,4.6113,4.6192,4.6185,4.6185,4.6223,4.6223,4.6224,4.6201,4.6199,4.6198,4.6196,4.6227,4.623,4.6233,4.6279,0,0,4.6241,4.6242,0,0,0,0,0,0,0,0,4.6143,4.6147,4.6186,4.6185,4.6185,4.6206,4.6206,4.6243,4.6201,4.6195,4.6197,4.6196,4.6222,4.6225,4.6235,4.6281,4.6282,4.6241,4.6243,4.6244,4.6244,0,0,0,0,0,0,0,4.614,4.6146,4.6204,4.6186,4.6186,4.618,4.6183,4.6213,4.6217,4.6195,4.6194,4.6198,4.6222,4.6232,4.6235,4.6283,4.6241,4.6243,4.6245,4.6246,4.6368,4.6369,0,0,0,0,0,0,4.6139,4.6144,4.6203,4.6205,4.616,4.6182,4.6186,4.6201,4.6216,4.6217,4.6199,4.6196,4.6228,4.6232,4.6236,4.6291,4.6244,4.6246,4.6248,4.6366,4.6368,4.637,0,0,0,0,0,0,4.6137,4.6144,4.6202,4.6174,4.6181,4.6185,4.6203,4.6202,4.6213,4.6219,4.6219,4.6209,4.6227,4.6232,4.6269,4.6292,4.6247,4.625,4.6364,4.6367,4.6369,4.6403,0,0,0,0,0,0,4.6135,4.6144,4.6162,4.6175,4.6183,4.6235,4.6204,4.6204,4.6217,4.6214,4.6228,4.6229,4.6226,4.6265,4.6271,4.6295,4.6252,4.6362,4.6365,4.6368,4.64,4.6406,4.6412,0,0,0,0,0,4.6132,4.6171,4.6163,4.6171,4.6206,4.6236,4.6241,4.6237,4.6219,4.6237,4.6241,4.6229,4.6288,4.6269,4.6276,4.6301,4.636,4.6364,4.6368,4.6397,4.6405,4.6412,0,0,0,0,0,0,4.6161,4.6173,4.6164,4.6208,4.6222,4.6232,4.6255,4.6246,4.6264,4.626,4.6255,4.6258,4.6296,4.6302,4.628,4.6346,4.6321,4.6327,4.6341,4.6349,4.6355,4.6353,4.6254,0,0,0,0,0,4.6173,4.6197,4.6205,4.6243,4.625,4.6252,4.6265,4.626,4.6274,4.6279,4.6286,4.6299,4.632,4.6335,4.6355,4.64,4.6402,4.642,4.6426,4.6431,4.6436,4.646,4.6468,4.6382,4.6382,4.6382,0,0,4.6197,4.6206,4.6222,4.6249,4.6259,4.6283,4.6257,4.6284,4.6302,4.6283,4.6318,4.6323,4.6337,4.6378,4.6396,4.6384,4.646,4.6436,4.644,4.6442,4.6464,4.6472,4.648,4.6384,4.6384,4.6383,0,0,4.6254,4.6264,4.6296,4.6306,4.632,4.6321,4.6328,4.634,4.6343,4.6377,4.6364,4.6384,4.6422,4.6432,4.6442,4.6501,4.6489,4.6507,4.6539,4.6562,4.6569,4.6575,4.6595,4.6603,4.6512,4.6512,4.6512,0,4.6283,4.632,4.6314,4.6342,4.6354,4.6337,4.637,4.6379,4.64,4.6408,4.6394,4.644,4.6448,4.6491,4.6505,4.6513,4.6522,4.6506,4.6568,4.6574,4.658,4.6599,4.6607,4.6514,4.6514,4.6514,4.6513,0,4.6353,4.6379,4.6403,4.6423,4.6438,4.6468,4.6466,4.6481,4.6475,4.6476,4.6511,4.652,4.6541,4.6551,4.6545,4.6592,4.6584,4.6569,4.6544,4.659,4.6608,4.6616,4.6517,4.6516,4.6516,4.6515,0,0,4.6432,4.6447,4.6456,4.6464,4.6478,4.6497,4.6526,4.6546,4.6559,4.6573,4.6597,4.6628,4.6614,4.6625,4.662,4.664,4.6685,4.6623,4.6623,4.6634,4.6737,4.6748,4.6757,4.6677,4.6679,4.668,4.6736,0,4.649,4.654,4.6534,4.6582,4.6605,4.6588,4.6613,4.6624,4.6625,4.6644,4.6646,4.6668,4.6648,4.6654,4.6673,4.6676,4.6706,4.6672,4.6699,4.67,4.6697,4.6767,4.6779,4.6832,4.6743,4.6744,4.6745,0,4.6565,4.6581,4.663,4.6639,4.6649,4.6671,4.6689,4.6707,4.6718,4.6718,4.673,4.6721,4.6748,4.6722,4.676,4.6737,4.6747,4.675,4.6752,4.6755,4.6726,4.6772,4.6848,4.6856,4.6756,4.6755,4.6754,0,4.6617,4.6651,4.6685,4.6692,4.6704,4.6719,4.6725,4.6734,4.6747,4.6762,4.6769,4.6787,4.6797,4.6811,4.6807,4.6788,4.6845,4.6819,4.6846,4.6846,4.686,4.6859,4.6939,4.6865,4.6865,4.6865,4.6865,0,4.6683,4.6714,4.6708,4.6729,4.6763,4.6756,4.6789,4.6792,4.68,4.6821,4.6807,4.6827,4.682,4.6839,4.6836,4.6867,4.6872,4.6872,4.6871,4.6873,4.6874,4.6881,4.6878,4.6867,4.6867,4.6866,4.6866,0,4.6748,4.6745,4.6781,4.6788,4.679,4.6815,4.6821,4.684,4.6839,4.6866,4.6871,4.6871,4.6892,4.6889,4.6913,4.691,4.695,4.6944,4.6946,4.6945,4.6972,4.6969,4.706,4.7071,4.699,4.6991,4.6991,0,4.6791,4.6814,4.6823,4.6836,4.6842,4.6863,4.6875,4.6867,4.688,4.6894,4.6911,4.6931,4.6947,4.6981,4.6983,4.7001,4.6996,4.7026,4.6998,4.7,4.6996,4.6995,4.6997,4.7032,4.7033,4.7034,4.7034,0,4.6867,4.6864,4.6882,4.6899,4.6913,4.6926,4.6938,4.6949,4.6942,4.6957,4.6979,4.6991,4.7015,4.7034,4.7051,4.7055,4.7044,4.7042,4.705,4.7053,4.7054,4.7054,4.6962,4.7041,4.704,4.704,4.7039,4.7039,4.6922,4.6942,4.695,4.697,4.6978,4.6989,4.7007,4.7008,4.7026,4.7044,4.7038,4.7063,4.7071,4.7092,4.7098,4.7117,4.7105,4.7116,4.7119,4.7121,4.7125,4.705,4.7119,4.7119,4.7119,4.7119,4.7119,0,4.6998,4.7002,4.702,4.7036,4.7052,4.7038,4.705,4.7063,4.7085,4.7094,4.7109,4.7133,4.7152,4.7154,4.7171,4.7185,4.718,4.719,4.7189,4.7191,4.7134,4.7126,4.7194,4.7194,4.7194,4.7194,4.7194,4.7194,4.7039,4.7071,4.7068,4.7104,4.7107,4.7131,4.7139,4.7148,4.7155,4.7182,4.7197,4.7198,4.7204,4.7221,4.7238,4.7238,4.7245,4.7257,4.7255,4.7202,4.7195,4.7188,4.718,4.7258,4.7258,4.731,4.7311,4.7311]}]]